Theta_e
314 314 314 314 314 315 315 316 318 319 320 321 322 323 325 328 326 324 329 332 329 329 331 330 332 335 335 335 336 334 333 336 338 339 338 336 334 338 344 348 350 351 353 355 354 353 354 354 354 355 356 356 357 357 357 357 358 358 358 356 355 352 350 347 346 345 344 345 346 347 347 347 348 348 349 348 347 345 343 341 340 338 338 339 336 333 332
313 313 313 314 314 314 315 315 317 319 320 320 321 323 324 326 326 327 330 331 331 330 331 334 337 337 336 335 336 336 338 342 344 344 342 338 335 337 340 346 349 349 350 351 350 350 352 354 354 355 356 356 357 356 357 357 357 357 357 356 354 352 350 347 347 346 345 345 345 346 347 348 347 348 348 347 346 346 344 343 343 342 341 342 341 338 333
313 313 314 314 314 315 315 315 316 318 319 320 321 321 323 324 325 327 329 329 329 328 334 341 341 338 336 335 338 343 347 349 350 350 347 345 347 347 345 344 347 348 350 352 351 350 349 350 352 355 355 355 356 356 357 358 357 357 357 353 352 350 348 348 347 347 345 345 345 345 346 346 347 347 348 348 347 347 346 345 345 345 344 344 345 345 341
312 313 314 314 314 315 315 315 316 317 318 320 320 321 324 325 326 330 329 327 328 332 338 342 342 339 336 336 341 348 352 354 355 355 354 354 355 355 356 354 351 347 349 354 353 348 345 348 351 353 354 356 356 355 356 357 357 357 357 354 351 349 349 348 347 347 347 346 345 345 345 346 347 347 347 347 347 347 346 346 346 346 347 346 346 348 349
311 312 313 315 315 316 316 317 317 318 319 320 320 324 332 334 332 331 330 329 333 338 338 339 341 341 343 344 347 351 354 355 356 354 356 357 357 358 360 361 359 353 347 350 352 347 343 347 350 350 352 354 353 353 354 356 357 357 358 356 353 350 349 348 347 347 347 347 346 345 346 346 346 347 347 347 348 347 347 347 347 347 347 348 347 348 349
311 312 314 316 317 316 318 320 320 320 320 320 321 329 335 336 333 332 333 334 337 336 335 337 340 342 345 350 350 352 354 355 355 355 356 357 358 359 360 361 363 358 348 346 350 350 345 344 346 349 352 352 353 354 354 356 356 357 357 356 354 350 349 348 347 347 347 347 347 346 346 346 346 346 347 347 347 347 347 347 348 347 347 348 348 347 348
311 312 314 317 318 318 320 324 325 323 321 320 326 331 333 332 332 332 333 334 333 333 334 336 339 341 344 348 350 351 352 354 354 355 355 356 358 359 360 361 362 360 351 343 345 353 352 347 348 354 355 354 355 355 354 354 355 355 355 354 352 351 348 347 347 347 347 348 347 347 347 346 346 346 347 348 348 348 348 348 348 347 347 348 348 348 348
310 311 313 316 319 319 323 326 326 326 327 327 331 332 331 329 330 331 331 332 331 332 335 337 338 341 344 346 349 349 351 353 353 353 354 355 357 358 359 360 362 361 355 345 342 350 354 352 352 354 355 355 355 356 354 352 353 353 352 352 351 349 347 347 347 347 348 348 348 348 347 347 347 347 347 348 348 348 348 348 348 347 347 348 348 348 349
310 311 313 316 317 319 323 325 326 327 329 329 331 333 331 327 327 328 328 329 328 329 332 335 338 342 345 346 349 350 350 350 350 350 352 354 355 357 358 360 361 359 354 347 344 349 354 354 352 354 356 355 355 356 355 353 352 352 351 351 349 347 347 347 347 346 348 348 347 348 348 348 347 347 347 348 347 348 348 348 348 348 347 348 348 348 348
311 311 314 316 317 319 322 325 325 326 328 328 328 333 331 326 325 327 327 326 326 326 328 332 337 343 346 347 347 348 345 345 347 348 350 352 355 356 357 360 360 354 350 349 348 351 355 354 352 355 356 356 356 355 354 352 351 350 349 349 347 347 347 347 347 347 347 348 348 348 348 348 347 347 348 348 347 348 348 348 348 348 348 348 348 347 348
311 312 313 315 317 321 325 325 324 325 328 328 328 333 332 326 324 326 325 324 324 323 324 329 337 344 348 347 346 342 339 341 343 346 349 352 354 355 357 359 358 352 350 351 350 353 356 353 353 356 356 355 356 354 352 351 351 349 349 347 346 347 347 347 347 348 347 348 348 347 347 347 347 348 347 348 347 347 347 347 348 348 348 348 348 348 349
311 312 313 315 317 322 324 322 322 325 327 327 330 335 332 325 323 324 323 323 323 321 323 327 332 337 340 340 336 333 334 338 341 345 349 352 353 355 356 358 357 353 353 353 353 354 354 353 356 357 356 355 355 352 350 351 350 348 347 346 347 347 347 347 348 348 348 347 347 347 347 347 347 348 348 348 348 348 347 348 348 349 350 350 349 349 350
310 311 313 314 317 322 322 321 323 324 326 330 333 332 328 323 321 321 321 322 321 320 321 325 326 326 327 327 326 328 332 336 339 344 348 351 352 354 355 356 356 355 355 355 354 353 354 355 357 356 356 355 354 351 349 349 348 347 347 347 347 348 347 348 348 348 348 347 347 347 348 347 348 348 348 348 349 348 349 350 350 350 351 353 354 354 353
310 311 312 314 317 320 320 320 322 323 327 332 330 325 322 321 320 320 320 320 320 319 320 322 323 322 322 322 323 326 330 334 338 343 347 349 350 353 354 356 356 357 356 355 354 355 356 356 356 355 354 353 350 349 348 347 346 347 348 347 348 348 348 348 348 348 348 348 347 348 347 348 348 348 348 349 350 351 351 352 352 352 352 353 355 357 357
310 311 312 314 318 319 318 320 322 322 324 325 322 320 321 320 319 319 319 318 318 319 319 319 320 320 320 321 322 325 329 333 337 341 345 347 349 351 354 354 355 357 359 357 355 356 358 357 356 356 353 350 348 347 345 346 347 349 348 347 347 348 348 349 348 348 348 348 348 348 348 348 348 348 349 350 351 352 353 353 355 356 356 356 357 358 360
311 312 314 316 317 317 317 318 319 318 318 317 317 318 320 319 318 319 318 317 317 317 318 318 318 318 319 319 320 323 328 333 336 340 344 347 348 350 353 354 355 357 359 359 357 356 357 357 356 357 355 351 347 347 346 346 348 349 348 348 349 348 349 348 349 349 348 348 348 348 348 349 349 349 350 350 351 352 353 355 358 360 360 361 361 361 361
314 314 315 315 315 315 315 317 317 316 316 315 315 316 317 317 318 318 318 318 317 317 317 318 318 317 317 318 319 321 325 330 335 338 343 346 348 350 352 354 356 357 357 359 360 358 357 357 357 357 356 352 347 348 349 349 348 350 350 349 349 349 349 349 349 349 349 348 349 349 350 350 350 351 352 351 352 353 353 357 361 362 362 362 363 362 362
313 313 314 314 314 314 315 315 316 315 315 315 315 315 315 316 316 317 318 318 318 317 318 319 319 318 317 317 318 319 323 329 334 337 342 347 348 350 352 353 355 357 357 358 360 360 359 359 359 359 358 356 351 350 351 350 348 350 351 350 350 349 349 349 349 349 349 350 349 349 350 350 351 351 352 353 353 353 355 360 362 363 363 363 364 364 364
311 313 314 314 314 314 314 315 315 315 315 316 315 314 315 315 315 317 317 317 317 318 317 318 319 319 317 317 317 318 322 328 332 335 339 345 348 349 350 351 353 356 357 358 358 359 360 361 361 361 361 360 357 353 351 352 351 350 350 350 349 349 349 349 349 349 350 351 352 352 351 351 353 353 352 355 356 354 355 360 364 364 364 364 364 364 365
310 313 314 313 313 314 316 316 316 316 316 316 315 314 314 315 315 316 317 317 317 317 317 318 319 319 318 317 316 317 320 325 330 333 336 342 347 348 348 349 351 352 354 357 357 357 359 360 361 362 362 362 362 358 353 352 353 351 349 349 349 350 350 350 350 350 350 351 355 357 355 354 358 360 358 358 360 359 357 360 363 365 365 365 365 365 365
311 313 313 312 313 315 317 316 316 315 315 314 314 314 314 314 315 316 317 317 317 317 316 317 319 319 319 318 317 318 320 323 327 331 334 339 344 348 347 347 347 348 350 354 355 357 358 358 359 361 361 361 361 359 353 352 353 351 349 349 350 349 350 350 349 351 351 351 355 360 362 361 362 364 364 363 364 364 363 362 363 365 365 365 365 365 365
312 312 311 311 312 314 314 314 314 314 314 314 314 315 314 315 315 316 316 317 317 316 315 317 319 319 319 318 317 318 321 323 325 328 333 336 340 346 347 345 345 346 347 349 351 354 356 358 358 359 359 359 359 358 355 355 356 353 350 350 350 351 351 352 353 354 354 354 357 361 365 367 365 362 363 363 364 364 365 365 365 364 365 365 365 365 365
311 310 310 310 310 311 312 312 313 313 313 314 314 314 315 315 315 315 316 317 317 315 315 317 318 318 318 318 318 318 320 322 323 326 331 334 336 340 344 345 345 345 345 345 348 350 352 355 357 358 359 359 359 360 360 360 359 355 351 349 352 355 355 355 355 356 355 357 360 362 364 368 368 365 362 363 363 363 365 366 366 364 363 364 364 365 365
309 309 309 309 310 310 311 311 312 313 313 314 315 315 315 315 316 316 316 317 316 315 315 317 318 318 317 316 317 318 320 322 322 323 327 331 333 336 339 342 344 345 345 344 346 347 348 350 353 356 359 361 361 361 363 365 365 362 357 354 355 359 359 356 355 355 355 357 359 361 364 366 368 367 365 363 362 362 363 364 365 364 363 363 363 363 364
308 308 308 309 309 310 311 312 313 313 314 315 316 316 316 316 316 316 316 317 316 315 315 317 317 318 317 315 315 316 319 321 323 323 323 326 329 333 336 337 339 342 345 345 345 346 347 348 350 352 355 358 360 360 362 365 367 367 365 364 363 364 365 364 362 360 361 362 361 362 365 366 365 366 366 364 363 362 362 362 363 362 362 362 363 363 363
308 308 308 309 310 310 311 312 313 313 314 315 316 317 316 316 316 316 316 316 317 316 316 317 316 317 317 315 314 315 317 319 322 324 323 322 324 327 331 335 335 337 341 344 345 345 346 346 348 350 351 353 355 357 359 362 364 365 366 367 366 366 367 367 366 364 365 365 364 364 366 365 364 364 364 363 363 362 361 361 362 361 361 362 362 363 363
308 308 308 309 310 310 310 311 312 312 314 315 316 317 316 316 316 316 316 316 316 316 316 316 315 316 316 315 315 316 316 316 319 322 324 324 323 321 324 328 331 334 337 341 342 343 344 345 347 348 349 349 350 352 355 357 359 361 363 364 364 364 364 364 364 364 364 363 363 364 364 363 363 362 362 362 362 360 359 360 361 362 361 362 362 362 363
308 308 308 308 308 309 310 310 311 312 313 315 316 316 316 315 315 315 315 315 315 314 314 314 314 314 315 315 316 318 318 316 316 319 323 325 324 320 317 319 322 326 331 336 339 341 342 343 344 346 346 346 348 349 351 354 355 356 358 359 360 361 361 361 361 362 361 362 362 363 363 362 362 362 362 362 362 360 360 360 361 362 362 362 361 361 362
308 308 308 308 308 309 309 310 311 312 313 314 316 316 315 314 315 315 315 315 315 315 315 314 313 312 313 314 316 318 319 317 316 317 320 323 325 323 319 318 319 320 324 329 333 338 339 340 341 344 345 344 345 347 348 351 352 353 354 356 356 358 359 359 360 360 360 360 361 362 363 362 363 362 362 362 361 360 359 361 362 363 363 362 361 360 361
308 308 308 308 308 309 309 310 310 311 312 313 315 316 315 314 315 315 315 314 315 316 316 316 314 313 312 313 314 315 316 317 317 316 316 321 325 325 322 319 318 321 323 324 325 329 334 337 340 342 343 342 343 345 346 347 348 348 349 352 354 356 357 358 359 360 360 360 362 363 362 362 362 362 360 359 359 359 360 362 363 362 361 360 360 360 360
308 308 308 308 308 309 309 309 309 310 311 312 314 315 316 315 314 315 314 314 315 315 315 315 315 314 312 312 313 314 314 315 317 318 316 318 323 326 323 320 319 321 323 325 324 322 325 330 335 339 342 342 342 342 344 346 346 346 346 347 349 353 356 358 358 358 358 359 360 360 360 360 361 361 360 360 361 361 362 363 362 360 358 357 357 357 358
308 308 308 308 308 308 309 309 309 309 310 311 312 314 316 316 315 314 314 314 314 313 313 313 314 314 313 312 314 315 314 314 315 317 317 317 319 321 320 319 319 319 321 324 325 323 320 322 327 333 338 341 341 341 342 343 345 345 345 345 345 348 350 353 354 353 353 355 356 355 356 358 360 361 362 362 363 363 364 363 361 359 358 356 356 356 355
308 308 308 308 308 308 308 308 309 309 310 310 311 313 315 316 316 314 314 314 314 313 313 313 313 313 313 314 315 317 318 318 317 317 318 319 320 320 317 316 318 320 320 320 322 323 323 322 321 324 330 335 338 340 341 342 342 343 344 344 344 344 345 347 348 349 350 350 351 351 352 354 357 359 360 361 361 362 363 361 361 360 358 356 354 352 349
308 308 308 308 308 308 308 308 308 309 309 310 311 312 313 315 316 316 315 315 314 314 314 313 313 314 316 317 318 318 319 320 319 319 320 322 324 323 320 318 317 320 320 319 319 321 324 324 322 321 323 326 330 334 338 341 341 342 342 342 342 343 343 343 345 346 347 348 349 350 351 353 355 357 357 357 357 358 358 358 358 358 357 355 351 346 343
307 307 308 308 308 308 308 308 308 309 309 309 310 310 312 313 315 316 316 316 316 316 316 315 316 317 318 318 319 318 318 319 319 320 321 322 323 324 324 322 320 320 320 320 319 319 321 323 322 322 321 321 323 329 333 337 339 340 340 340 340 341 342 342 342 343 344 345 347 348 349 351 352 354 354 355 356 355 355 355 354 354 353 351 347 343 339
307 307 307 307 308 308 308 308 308 308 308 309 309 310 310 311 313 314 315 316 316 317 317 317 317 318 318 317 318 318 318 318 318 319 320 321 321 322 323 324 323 322 322 323 323 322 321 320 320 320 321 321 321 324 328 333 336 339 339 338 338 339 340 341 341 341 342 343 343 344 346 348 349 351 351 351 351 351 351 350 350 347 345 343 341 338 335
307 307 307 307 307 307 308 308 308 308 308 308 309 309 309 310 311 312 313 314 315 315 316 316 316 316 316 316 317 317 317 317 317 317 318 318 319 320 321 322 322 323 324 324 325 325 324 323 320 319 320 321 320 320 323 328 333 336 336 337 337 339 339 340 340 340 340 341 342 343 344 345 346 347 346 346 346 345 345 344 343 341 338 337 336 334 333
307 307 307 307 307 307 307 307 307 308 308 308 308 308 309 309 309 310 311 312 313 314 314 314 314 314 315 315 315 315 316 316 316 316 317 317 318 319 320 319 319 320 320 321 322 324 326 326 324 323 323 323 321 321 323 324 328 332 334 335 336 337 338 339 339 339 339 340 341 342 342 343 343 343 342 341 341 341 341 340 339 338 337 335 334 333 332
306 307 307 307 307 307 307 307 307 307 307 307 307 307 308 308 308 308 309 310 310 311 312 312 313 313 313 313 313 313 313 314 315 315 315 315 316 316 317 317 316 316 316 318 319 321 323 324 325 325 325 324 323 324 325 325 327 330 332 333 334 335 336 337 337 337 336 337 339 340 340 340 340 339 338 338 338 338 338 337 337 336 336 335 333 333 332
306 306 307 307 307 307 307 307 307 307 307 307 307 307 307 307 307 307 307 308 308 309 310 310 311 311 311 312 311 311 312 313 313 314 314 315 315 315 315 315 315 315 316 317 317 318 319 321 323 323 324 325 325 325 327 328 329 330 331 332 333 333 334 335 335 335 335 336 337 337 337 337 336 336 335 335 335 335 335 335 335 334 333 333 332 331 331
305 306 306 307 306 306 306 306 306 307 307 306 306 306 306 306 306 306 306 307 307 307 308 309 309 309 310 310 310 310 311 311 312 313 313 314 314 313 313 312 312 312 313 315 317 318 319 320 320 321 322 324 325 326 327 329 330 331 331 332 332 332 332 333 333 333 333 333 333 333 334 334 333 332 332 331 332 332 332 332 332 332 332 332 332 332 331
305 305 306 306 306 306 306 306 306 306 306 306 306 306 306 306 306 306 305 306 306 306 307 307 308 308 309 309 309 310 310 310 310 311 311 312 311 311 311 311 310 310 311 313 315 317 318 317 318 319 320 321 323 324 325 327 328 329 330 330 331 331 331 332 331 331 331 331 330 329 328 329 329 329 329 328 329 329 329 329 330 330 331 331 331 331 330
306 305 305 306 306 306 306 305 305 305 305 305 305 305 305 305 305 305 305 305 305 305 305 306 306 307 307 308 308 308 309 309 309 309 310 309 309 309 309 309 309 309 310 312 314 315 316 315 315 315 317 318 319 321 322 323 324 325 326 327 327 327 327 327 327 327 327 327 326 324 322 322 322 322 323 324 324 324 324 325 326 326 326 326 326 326 326
305 304 304 305 305 305 306 306 305 305 305 305 305 305 305 305 305 305 305 305 305 304 305 305 305 305 306 306 307 307 308 308 309 309 309 309 309 308 308 308 308 308 309 311 313 313 313 311 311 312 314 315 316 318 319 320 319 319 320 321 322 323 323 322 322 322 323 322 322 322 321 320 320 320 320 321 321 322 322 322 323 323 324 324 324 324 325
306 304 304 304 304 305 305 305 305 305 305 305 305 305 304 304 304 304 304 304 304 304 304 304 305 305 305 305 305 306 306 307 307 307 308 308 308 307 307 307 307 307 308 309 311 310 309 307 307 309 312 313 314 316 317 317 315 314 315 315 316 316 316 316 316 316 317 317 317 318 318 319 319 319 319 318 319 320 320 321 321 322 322 322 322 322 322
308 307 306 305 306 306 305 305 304 305 305 305 304 304 304 304 304 304 304 304 304 304 304 304 304 304 304 305 305 305 305 306 306 306 306 306 306 306 305 305 305 305 305 306 308 308 307 306 307 308 309 310 312 314 314 313 312 311 311 311 311 311 312 312 311 312 312 312 313 313 313 314 314 315 315 315 316 316 316 317 318 318 318 319 319 319 319
307 307 307 306 307 307 306 305 304 304 305 305 305 304 304 304 304 304 303 303 303 303 303 303 303 304 304 304 304 305 305 305 305 305 305 305 305 304 304 303 304 304 303 303 304 304 305 306 307 307 308 310 311 312 310 310 310 310 309 309 309 310 310 309 308 308 309 309 310 311 311 312 312 312 313 313 313 314 314 315 315 315 315 315 315 315 315
306 306 307 307 307 307 307 306 305 305 305 305 305 304 304 304 304 304 303 303 303 303 303 303 303 303 303 304 304 304 304 304 304 304 304 304 304 303 302 302 303 303 303 302 302 302 302 303 304 304 306 307 309 310 308 307 308 309 309 309 309 310 310 309 309 308 308 308 309 310 310 310 310 310 311 311 310 310 311 311 311 311 311 311 311 311 311
305 305 306 307 306 306 306 305 305 305 305 305 305 304 304 304 304 303 304 303 303 303 303 303 303 303 303 303 303 303 303 303 304 304 304 304 303 302 302 301 301 302 302 302 301 301 301 301 301 302 302 303 304 305 306 306 305 306 307 307 307 308 308 308 307 307 306 306 306 306 306 306 305 305 305 305 304 304 304 304 304 304 303 303 304 303 303
304 305 306 306 306 305 305 305 304 304 304 304 304 304 303 303 303 303 303 303 303 303 303 302 302 302 303 303 303 303 303 303 303 303 303 303 303 303 302 301 301 301 301 301 301 300 300 301 301 301 300 300 300 300 301 302 302 302 303 303 303 303 303 302 302 302 301 300 300 300 300 299 299 299 299 298 298 297 297 297 297 296 296 296 296 296 295
304 305 305 305 305 305 305 305 304 304 303 304 304 304 303 303 303 302 303 303 303 303 303 302 302 302 302 302 303 303 303 303 303 303 303 302 302 302 302 302 302 301 301 301 300 300 300 300 300 300 300 300 299 299 299 299 299 299 299 299 299 300 300 300 300 300 299 299 298 298 297 297 296 296 296 296 295 295 295 295 295 294 294 294 294 294 294
303 304 305 305 304 303 303 304 304 303 303 303 304 304 303 302 302 302 302 302 302 302 302 302 302 302 302 302 302 302 303 303 303 303 303 302 302 302 302 302 302 301 301 300 300 299 299 299 299 299 299 299 299 299 299 298 298 298 297 297 297 297 297 297 298 298 298 298 298 297 297 296 296 296 295 295 295 295 295 295 295 295 294 294 294 294 294
Wind_Speed
19 18 16 14 12 11 12 12 11 9 8 10 12 15 16 11 8 9 8 7 10 11 9 7 6 8 9 9 10 11 9 7 6 5 5 6 6 8 13 18 22 24 27 29 32 35 35 34 35 34 34 35 35 36 37 37 36 37 39 41 42 43 44 44 43 43 43 42 40 39 38 37 36 36 35 34 33 32 31 30 30 30 30 30 30 31 31
18 19 17 15 14 13 14 14 14 13 11 12 12 13 14 13 11 10 8 9 10 9 7 9 11 14 16 15 15 14 11 9 10 9 9 9 8 6 8 14 20 23 26 29 33 35 36 35 36 35 34 36 37 37 37 38 38 38 39 41 43 44 45 45 44 43 43 42 41 40 40 38 37 37 36 35 34 33 31 30 30 30 30 29 30 30 31
14 18 17 16 15 15 15 16 16 15 14 13 13 12 12 13 13 11 10 11 12 10 7 10 12 15 16 16 16 14 11 11 12 12 13 12 11 9 7 8 14 19 23 27 31 34 37 38 38 37 37 38 39 37 37 39 39 39 41 43 45 45 45 45 45 44 43 42 42 41 41 40 38 37 37 36 35 33 32 31 31 31 30 31 30 29 30
11 14 15 16 15 15 17 18 17 17 15 12 12 11 11 13 13 12 12 12 10 8 8 10 10 12 14 14 14 13 12 13 14 15 16 15 15 15 13 10 10 14 19 24 28 32 36 38 39 40 39 38 39 39 40 41 40 39 40 43 46 45 45 45 44 43 42 42 42 42 42 41 39 38 37 36 36 35 34 33 33 32 32 32 32 30 30
9 12 14 14 12 13 14 14 16 18 16 13 13 11 6 6 9 10 10 7 3 5 9 9 9 10 11 12 12 13 14 14 15 16 17 18 19 19 18 17 15 15 18 21 26 31 34 37 39 41 42 41 42 43 42 41 39 38 39 42 45 45 45 44 43 42 42 42 42 43 43 42 40 39 38 37 37 36 35 34 34 34 34 33 33 33 32
9 12 13 10 12 14 10 7 11 17 18 18 15 9 5 3 4 5 6 5 5 8 9 10 10 11 13 14 13 12 12 14 16 17 19 20 21 21 21 20 18 18 19 21 26 30 33 36 38 39 40 40 40 40 40 39 39 39 39 41 44 45 44 43 42 41 41 42 42 43 43 43 42 41 39 39 38 36 35 35 35 35 35 34 34 34 33
8 10 9 9 13 12 5 2 6 11 16 16 9 7 5 2 2 4 6 7 7 9 10 11 12 14 16 17 17 14 11 12 15 18 20 20 21 22 22 22 22 20 19 22 26 29 33 34 35 36 36 36 35 37 40 41 41 41 42 42 43 44 43 42 41 41 41 41 42 42 43 43 42 41 40 39 38 36 35 35 35 35 35 34 34 34 33
7 8 8 9 9 7 5 4 4 4 8 11 12 9 4 1 1 3 5 6 7 10 12 13 13 14 16 17 18 15 10 11 14 17 20 21 22 24 24 24 26 24 21 22 25 28 31 31 32 35 36 36 34 35 39 41 42 42 43 43 43 43 42 41 40 40 40 40 41 41 41 41 41 41 40 39 38 37 36 36 36 35 34 34 33 33 32
7 8 8 8 9 9 8 7 4 2 3 6 7 5 3 3 2 2 3 4 7 10 12 14 15 13 13 15 14 7 6 11 14 16 19 21 22 24 25 25 26 25 22 22 23 26 27 29 32 33 34 35 34 34 37 41 42 43 43 44 44 42 41 40 40 39 39 39 40 40 41 41 41 41 40 39 38 37 36 36 35 35 34 33 33 32 32
7 8 8 8 10 10 6 4 1 1 1 1 2 3 4 2 2 3 4 5 7 10 13 17 17 12 11 10 6 5 15 17 16 18 19 20 21 23 23 24 24 22 20 19 21 23 26 29 32 33 33 34 35 37 39 42 43 44 44 44 43 41 40 40 39 38 37 37 38 39 40 41 40 40 39 38 37 36 35 34 34 35 34 33 33 33 33
8 8 7 7 9 6 3 3 2 2 2 2 3 6 4 0 3 5 5 6 9 11 13 16 14 7 8 6 4 16 24 22 19 20 19 18 20 20 20 21 20 17 16 17 19 22 26 29 32 33 35 36 36 38 41 41 42 44 44 43 41 40 39 38 38 37 36 36 36 37 38 39 39 39 38 37 36 35 35 34 34 34 34 34 34 34 33
9 10 8 7 8 3 3 6 7 6 4 2 6 8 4 2 4 6 7 8 11 13 14 12 9 4 2 6 14 23 26 22 20 19 17 16 18 18 18 18 15 12 12 15 19 23 27 30 32 33 35 36 36 39 40 40 41 41 41 40 39 38 38 38 38 37 36 36 35 36 36 37 37 37 37 36 36 35 35 34 34 33 33 33 34 33 33
10 11 9 7 7 1 6 10 10 7 4 6 8 5 2 5 6 7 9 9 11 14 14 11 8 8 10 13 20 23 23 21 20 16 13 13 14 15 16 15 10 7 10 15 19 21 26 30 32 33 35 36 36 38 40 40 39 39 38 38 38 38 38 38 37 36 35 34 34 34 35 34 34 35 35 34 35 35 34 33 32 33 32 31 30 30 30
9 9 8 8 6 3 12 14 9 5 4 6 4 1 5 8 8 8 9 11 12 14 15 12 11 14 16 18 21 22 21 21 20 16 12 12 12 13 14 11 6 3 8 14 18 20 24 29 32 33 35 36 37 38 39 39 37 36 36 35 36 36 37 36 36 35 34 33 32 32 33 32 32 32 32 32 33 33 32 31 31 31 31 30 29 27 27
8 9 8 8 5 6 17 17 7 3 2 0 3 3 5 8 10 9 10 12 13 14 15 15 15 17 18 20 22 22 20 20 20 17 14 13 13 13 13 10 6 2 5 11 15 19 22 26 29 31 33 36 37 37 37 36 35 34 34 33 34 35 36 36 35 34 33 32 30 30 31 31 31 31 31 31 33 32 30 30 28 25 24 25 25 24 23
7 9 6 3 3 7 14 12 4 4 5 6 8 7 5 7 9 8 9 11 13 14 16 16 18 19 19 22 26 25 22 21 22 20 18 16 15 15 14 11 7 3 2 7 11 15 19 23 25 27 30 34 36 36 35 34 34 33 33 33 34 35 35 35 34 33 31 29 28 28 29 29 29 29 29 29 30 30 28 26 23 20 18 19 19 20 21
5 5 3 4 8 10 10 8 4 3 3 5 9 9 6 6 7 7 8 10 13 15 15 16 19 20 21 23 27 28 24 22 23 23 20 19 18 17 15 13 9 5 1 5 8 9 13 18 21 23 27 31 34 35 34 33 32 33 33 33 34 34 34 33 32 32 30 28 27 27 27 27 27 27 27 27 28 28 27 23 19 18 19 18 18 18 19
6 7 6 7 10 12 10 5 1 1 1 4 8 10 9 8 8 8 8 9 12 14 15 15 18 21 23 24 27 29 27 23 24 24 22 21 20 20 20 18 14 9 3 4 6 8 10 12 14 17 20 25 30 32 31 30 31 32 32 33 33 32 32 32 31 30 29 28 27 26 26 26 25 25 26 26 26 27 25 22 19 19 19 19 19 18 17
4 3 2 4 11 15 10 6 3 2 4 5 9 11 12 11 11 10 9 9 11 13 14 15 16 18 22 25 28 31 30 26 25 25 24 22 20 21 23 21 17 14 9 7 6 8 8 8 9 11 13 16 21 27 29 28 28 31 32 31 31 30 30 30 30 30 29 28 26 25 25 25 24 24 25 25 25 27 27 24 21 20 19 19 20 19 18
4 5 4 9 16 13 8 7 4 6 8 10 12 12 12 12 13 12 11 10 11 12 14 15 16 17 20 24 29 31 30 28 26 25 26 24 20 19 21 21 20 18 15 12 11 9 8 8 8 9 10 11 14 20 26 26 25 28 31 30 29 29 29 30 30 29 28 27 26 25 25 26 25 24 25 26 26 26 28 27 25 22 21 21 22 21 20
5 6 6 13 13 5 5 3 6 10 13 15 15 13 12 13 14 14 13 11 11 12 13 15 16 17 20 23 27 27 27 29 28 26 26 26 22 19 19 21 22 21 19 16 14 12 11 10 9 8 9 9 10 14 22 24 23 26 28 29 28 28 28 28 28 27 28 27 26 24 23 23 25 25 25 26 26 24 24 26 26 25 23 23 22 21 22
3 3 7 11 9 5 6 11 14 15 17 17 16 15 13 13 14 15 15 14 13 11 12 13 15 17 20 23 25 25 24 27 29 27 26 28 26 22 19 19 22 23 21 18 16 15 14 11 9 9 9 8 8 11 16 18 19 22 25 26 27 26 27 28 28 26 27 27 25 24 21 21 24 28 29 28 27 25 24 24 25 26 26 26 23 22 22
5 8 12 13 10 10 13 17 18 18 17 17 16 15 14 13 13 14 14 15 14 11 10 12 13 16 19 21 23 24 23 24 27 27 26 26 28 26 22 20 20 22 22 20 18 16 15 13 12 12 11 11 9 10 12 12 13 18 22 24 25 24 25 27 26 25 26 26 25 25 22 20 23 27 29 29 28 26 26 26 25 25 26 27 26 26 24
8 11 15 15 13 13 15 18 19 17 15 15 15 14 13 12 12 12 12 13 13 11 10 11 12 14 18 20 21 23 23 22 25 28 26 25 26 27 26 24 21 21 21 21 19 17 16 14 14 13 13 12 11 10 11 10 9 12 16 20 20 20 21 23 25 26 26 26 26 23 20 21 23 22 23 28 30 28 28 28 27 26 26 25 26 27 26
11 13 17 16 13 12 14 16 15 13 13 14 15 14 13 12 11 11 11 12 11 11 10 11 11 13 16 19 21 22 22 22 23 25 27 28 27 26 26 26 25 21 19 19 18 18 18 16 13 12 12 11 10 10 10 10 9 9 11 13 14 15 15 16 19 22 21 21 23 20 17 19 20 17 17 21 24 26 29 30 29 28 28 27 26 25 24
14 16 17 13 8 10 15 14 13 13 15 15 14 13 13 13 12 12 12 11 10 10 9 8 10 12 14 17 20 21 22 22 21 22 24 28 29 28 25 25 25 22 18 17 17 18 19 18 14 12 12 11 9 7 7 8 10 11 12 12 12 14 13 11 12 15 14 13 15 15 14 14 16 16 15 15 16 20 25 27 28 28 28 28 27 25 23
18 19 18 13 11 17 20 17 15 16 16 15 14 13 12 11 11 11 11 10 9 9 8 6 7 10 13 15 18 20 21 22 22 21 22 23 26 28 27 24 23 22 20 18 18 18 18 18 15 13 14 13 10 8 6 5 7 9 10 10 10 12 14 12 11 11 10 10 12 12 13 13 13 13 13 14 15 18 20 22 24 27 27 27 26 24 22
21 21 20 16 15 21 21 16 14 15 15 14 14 11 9 10 10 9 9 9 9 9 8 5 4 8 12 14 15 17 19 20 21 22 21 19 20 24 28 27 26 25 22 19 19 18 18 18 17 15 15 15 12 10 9 7 5 5 6 6 6 6 8 10 10 9 9 11 12 11 12 12 11 12 13 13 13 14 16 19 21 21 21 21 21 20 19
23 22 19 16 15 18 18 15 15 17 17 17 16 11 8 8 8 8 8 7 6 6 6 5 3 5 9 12 14 14 16 17 18 20 20 18 17 19 24 26 26 26 24 23 22 22 19 19 19 17 16 16 14 11 10 8 7 7 7 8 8 8 8 10 10 8 8 11 12 12 11 10 10 12 13 13 12 14 16 18 17 15 14 15 15 16 17
24 22 20 18 17 18 18 18 19 20 20 20 19 14 9 6 6 6 6 5 3 3 3 3 4 4 6 9 12 12 13 14 15 16 17 17 16 17 19 22 24 24 23 24 25 26 23 21 19 17 17 16 15 13 10 9 9 9 7 6 7 7 9 11 10 9 9 11 12 11 10 9 9 10 12 14 16 18 17 14 13 13 13 12 12 13 15
23 21 20 20 20 21 21 21 21 22 23 22 20 16 12 7 4 5 4 2 1 3 3 2 4 4 5 8 10 11 11 12 13 14 14 15 16 17 18 19 21 21 21 22 25 26 25 23 21 19 16 15 16 15 12 10 10 10 8 6 4 4 7 10 10 9 8 8 8 8 8 8 10 12 14 16 17 17 15 14 14 13 12 12 13 13 15
23 21 22 22 23 23 23 23 22 24 25 24 21 18 15 11 6 3 3 2 2 3 4 3 3 5 7 9 9 9 10 11 12 13 13 12 14 15 16 17 17 17 18 21 24 25 24 24 23 20 17 15 14 15 14 12 11 10 9 8 5 2 5 7 7 6 4 5 6 5 6 9 12 14 15 16 16 15 14 15 15 15 14 14 15 16 17
24 23 23 24 25 25 25 24 23 23 24 24 22 18 16 13 10 5 1 2 2 2 3 3 4 6 8 9 8 8 9 9 10 10 10 9 10 12 13 15 15 15 15 17 19 21 21 21 21 20 18 16 15 13 12 12 11 9 8 8 6 4 0 4 6 6 6 8 8 6 7 10 12 14 15 15 14 13 13 13 15 17 18 17 18 20 21
21 20 20 21 22 22 22 22 21 21 22 24 23 20 17 16 14 10 5 2 1 1 2 3 3 4 5 5 5 7 8 9 9 9 8 9 9 9 10 11 12 12 12 12 13 14 16 17 17 17 17 17 16 14 11 10 10 9 8 6 6 6 5 1 2 3 6 8 9 10 10 11 12 13 14 14 14 13 13 14 16 18 20 21 23 24 24
18 18 17 17 18 18 18 19 20 21 21 23 24 22 19 17 15 12 10 8 5 2 1 1 0 0 1 2 5 7 9 9 9 9 9 9 9 9 9 9 9 9 10 9 9 9 10 11 12 13 13 14 15 15 13 9 7 8 9 8 7 8 8 6 5 4 3 3 5 8 9 10 11 13 15 16 16 17 17 16 17 20 23 26 27 27 26
17 18 18 17 17 18 18 17 19 20 20 21 23 23 21 18 17 14 12 11 10 8 6 5 4 4 5 6 7 8 9 9 9 9 9 9 9 9 9 9 8 8 8 8 7 6 6 7 7 7 7 9 12 14 14 11 7 6 6 6 6 9 10 8 7 6 4 2 2 3 4 6 8 11 14 17 19 20 21 21 22 24 26 27 28 28 28
15 16 17 17 17 17 18 18 18 19 20 21 22 23 22 21 20 18 15 13 12 11 10 9 8 8 8 8 8 8 8 8 8 8 8 9 10 10 10 10 9 9 9 8 7 6 5 5 7 8 8 7 8 11 13 12 9 6 5 4 7 10 12 11 9 7 4 2 1 2 3 4 7 10 13 16 19 21 24 25 26 27 28 28 29 29 28
13 14 16 17 16 16 17 17 17 18 19 20 22 23 23 23 23 22 20 17 14 12 11 11 10 10 9 9 9 10 10 10 9 9 9 9 10 11 12 12 13 12 11 11 10 9 6 5 5 7 8 8 8 9 11 12 11 8 6 6 8 10 12 12 10 8 5 3 4 5 5 5 7 10 13 16 19 22 25 27 29 30 31 32 32 32 30
12 14 14 16 16 16 16 17 17 17 19 20 21 22 22 22 22 23 23 22 19 16 14 12 12 12 12 12 12 13 12 11 10 10 10 10 10 10 11 12 13 13 13 12 11 10 8 7 6 6 7 9 8 8 9 11 12 11 9 7 7 8 9 10 9 8 6 5 5 7 7 8 9 12 15 18 21 24 26 28 30 31 32 33 34 33 30
12 13 14 15 16 16 17 18 18 18 18 19 20 20 19 20 21 22 23 24 23 20 17 15 15 15 15 15 15 15 14 13 12 11 10 9 9 10 11 12 12 13 13 14 13 10 9 8 6 5 6 8 8 8 8 9 11 12 11 9 7 6 6 6 5 5 5 5 6 8 9 10 12 14 17 20 23 25 27 29 30 30 31 31 31 30 28
10 12 12 13 15 16 16 17 19 19 19 19 20 20 19 19 19 20 21 22 22 20 19 18 18 17 16 15 16 15 15 14 14 12 11 10 10 12 13 14 14 14 14 13 12 10 9 8 6 6 6 8 8 8 8 8 9 11 11 10 8 6 6 6 5 5 5 7 9 11 12 13 15 16 19 21 24 25 27 27 28 28 28 27 27 26 26
7 10 11 12 13 15 16 17 18 19 19 19 20 20 20 19 18 18 19 19 19 20 20 21 20 19 18 17 17 17 17 17 16 15 15 15 15 15 15 16 16 15 13 11 9 7 6 6 5 4 5 6 8 9 9 8 9 9 10 9 8 6 5 5 5 5 6 8 11 13 14 15 17 19 21 23 25 26 26 27 27 27 26 26 25 24 24
4 7 10 11 12 13 14 15 16 17 18 19 19 19 19 19 18 17 17 17 18 19 20 21 22 21 20 20 20 20 19 18 17 16 17 18 18 18 16 16 16 15 12 9 7 6 6 6 6 4 3 3 4 5 6 6 5 5 5 5 4 4 5 5 6 6 8 9 11 12 13 14 15 17 19 20 22 22 23 23 23 23 22 21 20 20 19
6 7 9 10 11 11 12 13 15 16 18 18 18 18 19 19 18 17 16 17 18 18 18 19 20 20 19 19 20 20 19 18 16 15 15 17 20 21 19 16 15 14 12 9 8 8 9 9 8 5 2 1 3 4 3 3 4 5 6 7 7 8 9 9 10 11 12 13 14 14 15 16 17 18 19 20 20 20 20 20 21 21 21 21 21 21 21
9 8 6 7 9 10 11 12 13 14 15 16 17 18 19 19 19 18 17 16 17 17 17 17 17 17 16 17 18 18 19 18 18 17 18 20 21 21 19 18 18 17 15 12 11 13 15 14 11 7 5 5 5 6 7 9 10 12 13 13 13 14 15 15 15 15 16 17 18 18 19 20 21 22 22 23 23 24 24 24 24 24 24 24 24 24 23
7 5 4 5 6 7 9 10 11 12 13 14 15 17 18 18 18 18 17 16 16 16 16 16 16 15 14 14 14 15 16 18 18 19 20 21 20 20 20 22 24 24 23 21 19 18 17 15 13 11 10 9 9 10 11 13 15 18 19 19 20 20 20 20 19 19 19 19 20 20 21 21 22 22 23 23 23 24 24 24 24 23 23 22 22 21 20
6 5 4 4 4 4 6 7 9 10 11 13 14 15 16 16 17 18 17 16 16 15 15 16 16 15 14 14 14 13 12 13 16 17 18 17 18 21 23 25 25 25 27 29 28 25 21 19 17 17 15 14 15 17 18 19 19 21 23 24 24 25 26 26 26 25 25 24 24 24 24 24 24 24 24 23 23 23 22 22 22 22 22 21 21 21 20
6 5 4 4 4 3 3 3 5 6 9 10 12 13 14 15 15 16 17 17 16 15 15 15 15 15 15 15 15 14 12 12 14 16 16 16 19 22 24 25 23 23 24 27 29 29 26 25 24 24 24 22 22 24 26 26 26 26 27 27 28 29 30 30 30 29 28 27 27 27 27 26 25 25 24 23 23 22 22 21 21 21 20 20 19 19 18
5 4 3 3 3 3 4 4 2 2 4 7 10 11 13 14 14 15 15 16 16 15 15 14 14 14 14 15 15 15 14 14 14 14 14 15 18 21 23 24 25 25 25 27 28 28 26 24 24 26 28 29 28 28 27 28 29 30 30 30 30 30 29 29 28 27 26 25 25 24 24 23 23 22 21 21 20 19 19 18 18 18 17 17 16 16 15
4 3 2 2 2 3 5 6 5 2 3 6 9 10 12 13 14 14 14 15 15 14 14 14 13 13 13 13 14 14 14 14 14 14 14 15 17 19 20 22 24 25 25 26 27 27 26 24 24 24 26 28 29 29 27 26 26 27 27 27 27 27 27 26 25 25 25 24 23 22 22 21 21 20 20 19 19 18 18 17 17 16 16 16 15 15 14
4 3 2 1 2 3 5 8 8 6 7 7 8 9 10 12 13 13 13 13 13 14 14 14 13 12 11 11 11 12 13 14 14 14 14 16 17 18 19 20 21 23 24 25 25 25 25 25 25 25 26 26 27 28 28 27 26 26 25 23 23 22 22 22 21 21 21 21 21 21 20 20 19 19 19 19 18 18 17 16 16 15 14 14 14 14 14
4 3 3 2 3 4 4 6 7 8 9 7 6 7 9 10 11 11 12 12 12 12 12 13 13 12 11 10 10 10 11 12 13 13 13 14 16 16 17 18 18 20 22 24 25 24 24 24 24 25 26 26 26 26 25 25 26 26 25 24 22 22 22 21 20 19 18 18 18 18 18 18 18 18 19 18 18 17 17 16 15 14 14 13 13 13 12
Wind_Direction
274 279 282 283 279 273 275 276 268 251 230 222 224 228 230 231 241 244 243 256 252 245 255 279 333 342 325 327 334 328 322 320 323 322 297 275 249 215 200 197 198 200 200 201 205 208 205 198 197 198 198 197 197 196 195 194 194 195 197 201 206 211 215 216 215 214 213 213 213 214 215 214 215 217 219 220 222 225 225 224 223 225 226 229 232 234 233
280 280 276 272 268 266 267 266 263 259 249 236 229 231 233 235 243 250 266 292 281 257 274 312 326 324 320 323 324 318 317 325 329 322 306 295 287 263 222 206 205 207 208 209 213 214 209 202 198 197 197 197 197 197 196 195 194 194 198 204 209 213 217 218 217 215 213 213 213 214 215 215 215 216 219 221 222 223 224 224 223 224 225 227 230 233 235
281 280 276 266 257 257 261 262 260 256 248 239 233 231 229 233 238 239 245 265 268 263 305 332 317 308 309 311 314 320 330 338 334 324 314 310 309 308 293 245 223 218 215 213 214 215 214 211 203 198 199 199 198 197 196 195 194 195 200 208 213 216 218 218 218 217 215 213 214 215 216 217 216 216 218 221 222 223 223 224 225 225 226 227 228 230 234
274 274 270 260 253 252 253 254 252 247 242 236 231 227 228 233 231 224 225 235 246 269 322 334 312 299 294 291 304 321 332 338 335 326 321 319 317 315 311 300 268 242 227 216 214 219 220 215 207 202 200 199 198 198 200 198 195 194 199 208 214 217 217 218 219 218 216 214 214 215 217 217 217 216 218 220 222 223 223 224 225 226 227 229 229 229 232
272 271 264 258 253 249 245 244 242 238 236 236 229 218 214 233 230 223 224 229 265 324 333 329 320 313 300 293 306 321 328 332 329 322 319 317 316 314 310 305 292 270 250 229 223 228 224 215 210 208 205 203 204 204 203 200 195 193 197 205 213 216 217 218 219 218 217 215 215 216 217 218 217 217 218 219 221 223 224 225 227 229 230 231 232 232 233
270 273 270 259 244 238 237 243 239 231 226 227 224 206 168 176 226 250 268 290 328 336 325 317 317 312 304 301 300 303 317 327 324 319 317 314 312 310 306 302 296 283 267 244 230 230 230 223 216 210 205 205 205 203 201 199 194 194 198 205 213 217 217 218 219 218 217 217 217 218 219 219 219 218 218 220 222 223 225 228 230 232 233 234 235 235 236
266 276 271 252 239 231 221 256 252 241 228 213 180 117 106 153 242 281 283 287 309 319 309 307 308 297 292 293 287 283 299 320 319 315 312 310 309 306 303 301 296 288 271 250 233 226 226 222 211 202 199 201 199 198 202 203 199 199 204 208 213 218 219 219 219 218 218 218 219 220 221 221 221 221 221 222 223 225 226 229 232 233 235 237 238 239 239
256 261 247 244 248 232 198 204 225 245 223 184 143 113 95 66 308 281 280 282 301 310 306 308 306 290 283 282 273 270 287 309 313 311 307 307 306 302 301 299 295 287 270 251 237 226 220 213 203 198 196 196 194 194 201 205 203 204 209 211 214 219 220 219 218 217 217 218 219 221 222 223 224 224 224 224 225 226 227 230 233 235 236 238 240 241 242
244 250 246 252 263 247 219 205 202 232 216 174 158 151 112 54 6 327 317 308 316 322 321 320 310 290 280 271 255 258 325 325 316 312 306 303 302 301 300 297 292 284 268 249 235 223 213 204 199 197 194 190 188 190 197 204 206 208 211 213 217 221 220 219 218 217 217 218 219 220 222 224 224 224 225 226 226 226 227 229 233 236 237 238 239 240 241
235 249 254 252 254 243 209 164 153 283 307 309 243 185 141 86 9 17 7 346 348 344 334 328 316 289 260 245 231 8 355 338 327 321 310 302 301 301 300 298 293 281 260 241 228 215 205 198 195 193 188 184 185 191 200 206 207 209 213 216 219 221 220 219 218 217 217 218 219 220 222 223 224 224 225 226 226 226 227 228 231 235 236 237 238 238 239
232 237 242 242 246 236 128 71 10 351 2 337 253 214 194 120 19 24 13 4 7 354 337 333 326 284 233 231 345 354 343 334 329 322 312 304 302 302 302 301 297 280 252 232 218 206 197 193 190 186 183 182 186 195 203 206 207 211 215 217 219 219 219 219 218 218 218 218 219 220 222 222 223 224 225 225 226 226 227 228 230 232 235 237 238 239 240
234 236 236 241 244 229 50 355 331 336 338 282 218 215 204 65 33 25 21 20 13 357 346 352 2 0 294 307 328 333 331 331 328 320 312 309 306 307 308 304 295 275 243 220 207 200 194 189 184 183 182 183 189 199 204 206 208 212 216 217 218 219 219 218 219 219 219 218 218 220 222 223 224 225 226 227 228 229 230 230 232 233 234 237 240 242 243
231 234 235 247 250 283 11 337 328 336 301 220 201 206 114 62 43 35 30 23 17 5 359 11 17 355 335 323 321 327 334 337 332 324 322 320 314 315 319 314 300 270 232 214 204 197 192 187 183 182 182 184 192 201 206 208 211 214 216 216 217 219 219 218 219 219 220 220 220 221 224 225 226 227 228 229 231 233 233 233 234 235 235 235 237 240 243
224 225 233 253 252 16 2 335 328 341 284 210 183 61 68 60 42 43 38 24 18 7 0 4 355 336 333 331 329 333 342 344 337 334 343 344 336 335 335 331 327 275 227 217 207 196 189 187 186 185 188 192 198 204 208 211 212 212 213 215 217 218 217 216 217 219 220 221 221 223 225 226 227 228 229 230 232 233 233 234 235 237 237 237 236 237 239
221 219 223 239 241 5 353 335 326 355 335 318 5 6 82 64 33 32 33 20 11 360 352 353 347 338 338 340 340 343 349 349 345 352 7 7 358 357 352 346 356 354 229 216 204 195 190 188 187 188 192 199 203 207 210 211 210 209 211 214 216 216 216 215 216 217 219 220 220 221 223 225 226 227 227 228 230 231 231 232 233 234 235 236 236 234 235
221 215 207 239 287 340 346 343 8 55 48 43 13 3 57 56 24 18 16 8 5 359 352 348 346 344 342 345 352 356 354 352 355 7 22 23 18 17 9 2 21 40 235 206 196 197 194 189 188 189 194 201 206 208 210 209 206 207 211 214 215 215 215 215 215 216 217 218 218 219 221 223 224 225 226 227 230 231 232 231 228 227 227 228 228 229 230
263 255 257 309 317 327 337 346 14 42 48 41 19 13 23 18 5 1 354 353 356 354 351 349 350 352 348 347 356 360 355 352 359 9 24 32 33 34 28 22 40 61 145 176 172 180 183 184 187 188 194 204 209 208 207 207 206 206 209 212 215 215 215 213 213 214 215 216 217 218 220 221 222 222 224 226 228 229 230 226 220 220 222 222 223 225 227
311 298 272 274 302 318 318 306 319 1 333 5 7 0 349 339 336 332 332 344 349 347 349 349 349 353 352 349 355 1 360 0 4 11 25 37 42 48 45 37 42 55 82 142 149 154 157 167 180 186 193 204 210 208 206 207 207 206 208 212 214 214 214 213 212 212 213 214 216 217 218 220 221 222 223 225 226 227 225 220 214 215 217 218 220 223 224
325 309 250 281 309 312 297 250 227 290 302 324 340 338 328 321 317 312 315 333 342 345 351 349 344 351 355 354 359 4 4 4 5 9 22 35 43 49 49 46 50 59 70 88 117 139 142 146 164 176 185 196 204 208 208 207 206 208 211 214 215 214 214 213 212 211 211 212 213 214 216 218 218 221 223 223 225 227 224 216 210 212 214 214 218 221 223
291 263 280 320 316 300 256 214 236 296 311 318 323 322 318 314 311 308 308 318 330 338 347 348 345 349 353 356 2 5 4 5 5 8 20 33 43 49 50 53 57 60 66 76 89 107 120 132 149 162 172 181 192 204 208 206 206 210 213 214 214 215 214 213 213 212 211 211 209 210 212 214 213 215 218 219 220 224 226 220 213 211 213 214 215 217 220
276 254 297 331 329 288 203 229 304 313 317 316 313 311 311 311 310 307 308 314 321 328 338 343 345 347 348 353 358 359 359 3 7 11 20 30 42 52 53 56 62 62 60 64 72 81 95 117 137 148 162 174 183 200 207 207 208 212 215 215 214 215 214 213 213 212 212 211 209 206 208 210 210 211 212 214 215 218 223 226 220 213 214 218 219 220 222
301 324 336 337 329 284 280 307 315 314 314 311 307 306 306 306 306 305 307 310 313 321 336 342 345 348 349 351 355 355 355 359 6 14 22 28 38 52 57 58 64 64 58 57 63 68 75 94 118 130 145 160 172 193 206 210 212 214 215 215 214 212 211 211 211 211 211 211 210 208 205 207 214 216 214 214 216 214 215 223 226 220 215 216 219 221 223
320 333 332 325 311 293 294 303 309 311 311 309 305 303 302 301 302 302 301 302 305 315 335 343 344 348 349 349 353 357 357 358 6 18 26 25 29 44 55 57 59 62 58 56 59 61 64 77 98 117 136 147 155 173 185 194 207 214 215 213 211 209 210 212 212 212 210 208 210 210 204 205 219 226 223 221 222 218 214 218 226 229 224 220 219 221 221
317 324 325 318 307 297 298 305 308 309 310 309 305 302 301 299 298 298 295 293 293 302 322 335 342 348 350 352 357 359 358 359 6 18 27 26 25 36 48 48 48 55 58 54 53 56 63 75 91 110 128 136 140 152 160 159 172 197 207 208 207 207 209 213 216 218 217 215 216 215 209 210 221 228 227 226 228 227 224 223 226 231 234 231 228 227 228
335 332 328 321 310 307 314 316 316 317 322 319 309 302 299 296 292 292 291 285 281 285 300 322 339 346 348 355 4 5 3 3 6 12 21 27 29 34 40 37 34 40 51 53 54 59 61 65 77 97 113 123 129 137 145 148 147 159 178 189 194 196 201 209 213 214 215 216 217 215 211 215 220 221 220 225 229 232 233 232 232 236 240 242 241 239 237
349 343 339 334 328 336 342 341 334 332 330 323 313 305 300 293 287 286 284 278 275 275 283 309 336 345 347 355 8 12 11 13 14 12 15 22 27 31 34 30 25 26 37 49 57 63 63 60 64 80 91 102 112 113 124 149 156 157 164 171 178 185 189 196 204 205 204 206 209 207 206 210 214 216 216 216 222 231 235 235 236 239 242 243 244 244 242
359 358 357 355 347 346 349 348 339 335 334 329 325 318 302 290 286 283 280 276 271 268 269 292 328 342 348 355 5 10 13 18 23 20 15 15 20 26 32 34 30 28 31 40 50 58 61 58 59 67 75 81 83 71 68 113 155 165 169 173 182 191 193 193 197 202 206 207 206 205 207 207 207 211 214 211 217 230 235 233 233 237 239 240 240 240 238
6 4 4 2 350 343 344 344 343 346 348 343 338 328 306 292 286 278 277 281 273 260 255 266 315 347 352 352 354 358 3 14 25 27 21 14 14 23 30 34 36 34 32 37 48 55 54 49 50 59 68 71 71 63 56 69 102 127 141 154 168 189 200 202 204 208 211 213 211 208 207 206 202 202 203 204 210 220 221 219 224 230 234 235 235 233 231
7 3 2 360 352 348 352 357 0 3 3 356 351 347 325 298 283 269 271 279 269 250 249 261 289 340 350 350 352 353 353 1 16 25 23 16 12 18 23 26 30 32 29 31 43 53 51 45 46 55 62 62 59 54 50 52 65 85 113 139 153 164 181 190 194 200 210 215 215 210 202 196 192 191 193 193 194 201 208 211 213 217 221 226 231 230 227
3 2 1 360 358 360 5 9 8 9 7 0 358 0 354 320 288 271 271 277 261 224 229 278 291 300 329 347 358 1 356 357 8 16 18 17 17 18 21 23 25 24 21 23 34 42 44 43 44 47 50 47 41 39 45 47 45 54 81 122 148 170 186 185 180 187 204 208 205 198 192 190 187 185 186 190 195 202 209 209 205 208 215 219 221 223 221
360 3 4 6 6 6 10 12 11 10 9 3 359 3 7 359 320 276 263 272 243 205 205 259 300 308 332 350 357 0 1 5 9 8 9 14 18 20 23 27 27 20 12 14 24 32 36 38 38 39 43 43 37 35 41 45 41 41 47 62 94 156 181 177 170 174 188 191 184 179 181 189 195 197 199 203 207 209 209 206 204 208 214 214 211 210 212
1 4 7 9 9 9 11 12 10 9 9 7 3 2 7 10 3 307 253 244 231 222 226 249 290 325 344 349 348 349 356 4 8 5 3 7 13 15 19 27 32 27 16 14 18 22 26 31 33 32 33 38 36 33 35 40 42 39 38 39 46 111 167 159 146 141 147 153 154 162 180 193 201 205 208 211 214 212 210 211 209 206 208 212 208 203 200
4 6 8 8 8 7 6 6 6 7 9 9 7 6 8 14 19 22 276 231 236 236 238 252 285 319 334 339 341 344 346 350 355 357 354 354 0 6 11 18 26 28 24 22 21 18 17 22 26 27 29 30 28 26 30 38 41 38 38 42 38 19 164 153 142 146 162 166 159 159 180 197 203 207 208 209 210 211 212 215 212 207 206 204 197 190 187
9 10 11 10 9 7 2 1 3 7 10 11 11 12 14 19 26 36 53 76 142 219 231 253 290 315 325 335 350 355 352 351 354 355 348 342 347 358 2 6 13 19 21 25 27 22 17 14 13 17 22 24 19 15 16 23 29 29 26 26 16 357 348 348 184 206 203 191 184 184 193 202 207 207 205 206 207 208 208 211 215 215 209 199 189 183 179
12 13 14 15 16 14 7 4 6 10 13 15 16 16 18 22 29 38 50 60 66 81 117 149 170 332 345 5 12 8 5 4 1 355 348 345 348 352 350 348 357 7 11 14 18 17 14 11 8 9 12 12 8 7 5 4 10 16 14 6 350 342 347 357 350 327 303 238 206 199 200 206 211 209 206 206 207 208 207 207 209 208 201 192 184 179 174
13 13 15 17 18 19 18 13 12 14 18 21 22 22 22 25 29 34 42 51 59 71 85 95 96 87 70 52 35 21 14 11 5 358 356 356 354 351 346 344 345 349 353 1 8 1 344 337 340 348 354 355 354 355 356 354 353 358 6 6 348 334 338 349 350 339 333 318 231 201 201 216 223 219 214 209 205 202 199 196 192 189 185 181 177 174 170
15 15 17 19 21 23 24 21 16 17 20 23 26 27 29 32 34 36 40 47 54 62 69 71 70 67 62 54 42 29 23 24 24 20 16 9 359 353 352 351 349 348 346 349 356 357 342 320 310 310 312 313 316 324 331 337 339 340 339 333 326 329 334 339 338 334 333 321 232 211 218 232 234 228 219 209 200 194 190 186 182 178 174 171 170 169 167
18 18 20 23 24 26 28 25 21 22 24 25 28 31 34 37 39 40 43 48 51 54 60 65 66 65 62 57 51 44 39 36 36 38 37 28 13 5 3 2 1 2 359 349 342 343 342 325 302 301 307 308 305 306 310 313 315 317 317 312 316 327 333 333 330 326 319 277 231 223 226 230 228 223 213 203 196 191 187 183 180 177 174 171 170 170 170
22 21 24 26 27 30 32 28 26 27 28 29 31 33 35 38 40 41 45 49 51 53 59 63 65 64 63 60 56 51 46 41 39 41 45 44 36 31 26 18 9 5 359 348 339 338 336 325 312 308 311 309 306 302 298 296 297 299 300 301 311 325 330 328 323 317 304 276 241 224 218 214 212 208 202 197 192 189 186 184 182 180 177 174 174 174 174
24 22 24 27 29 33 35 33 31 32 34 35 36 36 36 38 41 43 45 47 49 51 57 63 66 64 62 61 59 55 51 48 46 45 47 48 46 45 40 27 10 0 354 348 345 347 348 342 336 332 323 312 302 293 286 286 288 290 290 290 296 308 313 309 300 287 270 250 231 218 210 203 200 197 193 191 189 187 185 184 183 180 178 176 174 173 171
30 25 26 29 32 35 37 37 37 36 36 37 38 38 39 41 43 45 47 48 48 50 53 58 63 63 61 61 63 61 57 54 53 52 51 51 48 46 42 31 18 7 0 354 350 349 349 349 348 343 335 325 312 299 288 284 283 284 283 282 285 291 292 285 277 261 238 218 205 199 196 195 193 189 186 184 184 184 184 184 182 180 178 177 176 175 172
42 33 30 33 37 37 37 39 40 39 37 36 36 37 39 41 43 46 47 47 48 49 50 53 60 67 70 70 69 67 64 61 59 58 58 57 54 51 47 40 31 21 9 1 0 1 0 3 5 349 333 327 317 306 297 288 281 277 274 273 272 271 264 256 247 234 220 208 195 187 184 185 185 183 181 180 179 179 180 180 179 179 178 177 177 177 174
44 49 42 38 39 40 38 39 41 40 39 38 36 36 39 41 42 44 45 45 46 48 49 51 56 63 68 71 70 67 64 62 61 61 62 61 58 57 55 51 45 37 24 15 21 29 31 38 42 30 356 321 295 288 286 280 269 256 245 237 228 212 202 197 188 183 188 191 185 175 167 164 164 166 168 169 168 168 169 169 168 167 166 163 159 156 152
57 82 65 45 42 44 41 39 40 40 39 39 39 39 40 41 42 43 44 46 48 48 48 50 52 53 54 57 61 60 59 57 56 57 60 60 56 54 53 54 55 50 39 32 40 48 45 45 49 50 53 152 196 206 203 187 163 151 149 152 152 151 151 150 151 154 159 161 162 161 157 152 149 149 150 152 153 153 154 154 152 151 150 149 148 147 147
56 78 70 47 45 45 40 38 39 38 36 38 41 41 41 42 43 42 43 46 49 49 47 50 54 55 53 53 55 59 62 62 59 56 58 59 56 52 51 55 58 57 52 51 58 61 58 55 57 68 96 131 156 163 155 141 126 115 110 111 114 118 121 124 127 132 139 141 142 144 146 146 146 145 145 145 145 146 147 148 148 149 149 151 151 153 155
45 49 43 36 35 33 32 36 39 37 34 36 39 40 41 41 42 42 43 44 48 51 50 48 51 56 60 61 61 60 62 65 65 65 64 64 62 60 62 64 64 63 62 64 66 68 70 71 73 81 96 114 129 132 129 125 119 111 105 103 104 107 108 109 109 112 117 122 124 125 128 130 131 133 134 135 135 136 138 139 141 142 143 143 143 143 144
39 38 33 24 17 15 23 32 35 33 31 33 36 38 39 41 42 43 43 43 44 48 51 50 49 51 55 61 66 66 64 63 66 69 70 70 69 69 70 71 71 69 68 68 67 67 70 76 82 88 98 109 116 114 110 109 110 110 109 107 107 107 106 104 101 100 102 104 107 108 110 112 113 116 118 120 121 122 125 127 128 129 130 131 131 132 134
33 33 23 18 20 15 5 13 29 32 30 31 32 32 34 37 41 42 43 44 43 43 45 49 51 51 50 53 58 64 69 72 72 72 72 74 77 78 79 80 79 78 76 74 72 69 67 69 75 81 88 94 100 103 102 99 99 101 104 105 105 106 106 106 105 104 104 105 106 107 107 106 107 109 111 112 112 113 116 118 118 120 122 124 125 127 129
23 22 13 14 18 357 326 319 335 28 33 32 32 29 28 31 36 38 39 41 43 42 42 44 47 51 53 54 55 58 64 71 75 76 76 77 80 83 85 85 84 83 82 81 79 76 72 69 69 72 75 79 83 88 92 93 93 96 100 103 103 104 105 105 107 107 107 107 107 107 107 107 108 108 108 107 107 107 108 109 111 112 114 116 118 120 123
15 7 0 2 2 352 344 344 350 30 60 45 37 33 30 30 32 33 34 37 41 42 42 42 43 47 53 56 55 55 58 63 69 74 78 79 80 83 85 86 86 87 86 86 85 84 82 78 74 70 70 71 72 75 79 83 86 90 95 99 102 103 103 103 104 105 104 103 103 103 103 104 105 105 104 104 103 102 102 103 105 107 110 112 113 114 116
19 24 39 15 342 347 357 360 12 53 79 63 37 32 35 33 31 31 33 35 38 41 43 44 44 47 51 54 54 55 58 62 66 70 75 78 80 82 83 83 83 83 84 84 85 84 83 82 80 77 74 72 71 71 73 76 78 81 84 87 91 95 98 100 101 102 102 102 102 102 101 101 102 102 102 103 103 103 104 105 105 107 109 111 112 113 114
29 47 68 40 12 23 27 15 23 56 78 73 43 34 37 35 30 30 32 33 36 41 46 49 49 48 49 54 59 60 62 65 68 72 75 79 81 82 81 80 79 79 80 80 80 79 78 78 79 79 78 77 75 73 73 75 77 80 83 84 85 87 89 91 93 95 97 99 101 102 103 104 105 106 106 106 106 106 106 106 105 105 105 107 108 110 110